EAG5507 VNKT-UNNT

Flight info

Callsign EAG5507
Flight time N/A
Altitude 40000
Route DARKE1G DARKE DCT NARAN T144 POK DCT OLP/K0906S1160 Y3 KUS/K0900S1220 Y3 SQH DCT HTN DCT MAGIV W176 KHG L43 OGIGI/K0896F400 L43 ODNIX T184 TADOT/K0895F390 T230 BALVU/K0898F410 L135 IZIMA P984 KONAT Z584 KABIZ/K0907F400 Z584 SOMIP/K0906F410 L143 ELSUT G121 RUBID G831 ORPAS ORPAS1M
Aircraft A35K/H-SDE2E3GHIJ3J4J5LM1ORWXY/LB1D1

Departure

Time 2026-04-28 07:52
Airport Tribhuvan International Airport (VNKT)

Arrival

Time N/A
Airport Novosibirsk Tolmachevo Airport (UNNT)
Time Latitude Longitude Altitude Speed Heading
2026-04-28 07:47 27.69931 85.35921 4397 ft 0 kts 21°
2026-04-28 07:48 27.69953 85.35932 4397 ft 9 kts 22°
2026-04-28 07:48 27.70029 85.35966 4397 ft 13 kts 22°
2026-04-28 07:49 27.70116 85.36006 4397 ft 14 kts 22°
2026-04-28 07:49 27.70212 85.36050 4398 ft 15 kts 22°
2026-04-28 07:49 27.70316 85.36097 4398 ft 17 kts 22°
2026-04-28 07:49 27.70429 85.36149 4398 ft 18 kts 21°
2026-04-28 07:50 27.70547 85.36210 4398 ft 19 kts 40°
2026-04-28 07:50 27.70606 85.36335 4400 ft 18 kts 48°
2026-04-28 07:50 27.70720 85.36401 4400 ft 19 kts 22°
2026-04-28 07:50 27.70843 85.36472 4398 ft 20 kts 52°
2026-04-28 07:51 27.70893 85.36510 4398 ft 4 kts 296°
2026-04-28 07:51 27.70880 85.36480 4398 ft 5 kts 224°
2026-04-28 07:51 27.70844 85.36457 4398 ft 6 kts 201°
2026-04-28 07:51 27.70841 85.36455 4399 ft 0 kts 201°
2026-04-28 07:52 27.70671 85.36379 4400 ft 63 kts 202°
2026-04-28 07:52 27.70043 85.36093 4397 ft 132 kts 202°
2026-04-28 07:52 27.68994 85.35618 4433 ft 189 kts 203°
2026-04-28 07:52 27.67767 85.35052 5212 ft 188 kts 205°
2026-04-28 07:53 27.66600 85.34442 6135 ft 181 kts 211°
2026-04-28 07:53 27.65607 85.33501 6558 ft 196 kts 233°
2026-04-28 07:53 27.64974 85.32059 6845 ft 217 kts 256°
2026-04-28 07:53 27.64946 85.30290 7216 ft 237 kts 282°
2026-04-28 07:54 27.65632 85.28573 7834 ft 245 kts 302°
2026-04-28 07:54 27.66644 85.26938 8262 ft 265 kts 306°
2026-04-28 07:54 27.67762 85.25220 8879 ft 276 kts 306°
2026-04-28 07:54 27.68904 85.23449 9664 ft 280 kts 305°
2026-04-28 07:55 27.70024 85.21615 10297 ft 292 kts 302°
2026-04-28 07:55 27.71049 85.19534 10622 ft 315 kts 295°
2026-04-28 07:55 27.71968 85.17207 10932 ft 335 kts 293°
2026-04-28 07:55 27.72903 85.14718 11253 ft 353 kts 293°
2026-04-28 07:56 27.73882 85.12103 11563 ft 369 kts 293°
2026-04-28 07:56 27.74836 85.09376 12084 ft 378 kts 289°
2026-04-28 07:56 27.75509 85.06494 12711 ft 382 kts 281°
2026-04-28 07:56 27.75780 85.03498 13372 ft 385 kts 271°
2026-04-28 07:57 27.75626 85.00497 14182 ft 382 kts 264°
2026-04-28 07:57 27.75268 84.97546 14701 ft 387 kts 262°
2026-04-28 07:57 27.74862 84.94525 15243 ft 390 kts 262°
2026-04-28 07:57 27.74451 84.91486 15801 ft 392 kts 262°
2026-04-28 07:58 27.74040 84.88420 16363 ft 396 kts 262°
2026-04-28 07:58 27.73628 84.85335 16860 ft 399 kts 262°
2026-04-28 07:58 27.73212 84.82218 17392 ft 403 kts 262°
2026-04-28 07:58 27.72795 84.79085 17932 ft 405 kts 262°
2026-04-28 07:59 27.72374 84.75928 18412 ft 408 kts 262°
2026-04-28 07:59 27.71951 84.72755 18918 ft 410 kts 262°
2026-04-28 07:59 27.71524 84.69566 19413 ft 412 kts 262°
2026-04-28 07:59 27.71099 84.66399 19892 ft 414 kts 262°
2026-04-28 08:00 27.70669 84.63193 20536 ft 412 kts 262°
2026-04-28 08:00 27.70239 84.59987 21052 ft 414 kts 262°
2026-04-28 08:00 27.69805 84.56752 21527 ft 418 kts 262°
2026-04-28 08:00 27.69391 84.53493 22020 ft 421 kts 264°
2026-04-28 08:01 27.69273 84.50186 22503 ft 423 kts 272°
2026-04-28 08:01 27.69660 84.46886 23002 ft 426 kts 282°
2026-04-28 08:01 27.70579 84.43693 23461 ft 430 kts 292°
2026-04-28 08:01 27.72015 84.40716 23883 ft 435 kts 302°
2026-04-28 08:02 27.73913 84.38082 24311 ft 440 kts 313°
2026-04-28 08:02 27.76205 84.35767 24757 ft 444 kts 319°
2026-04-28 08:02 27.78633 84.33585 25224 ft 448 kts 320°
2026-04-28 08:02 27.81122 84.31461 25767 ft 450 kts 321°
2026-04-28 08:03 27.83650 84.29342 26301 ft 454 kts 321°
2026-04-28 08:03 27.86192 84.27209 26855 ft 456 kts 321°
2026-04-28 08:03 27.88742 84.25053 27368 ft 460 kts 321°
2026-04-28 08:03 27.91303 84.22868 27882 ft 463 kts 321°
2026-04-28 08:04 27.93882 84.20653 28373 ft 467 kts 321°
2026-04-28 08:04 27.96471 84.18417 28913 ft 470 kts 321°
2026-04-28 08:04 27.99078 84.16161 29417 ft 473 kts 321°
2026-04-28 08:04 28.01701 84.13889 29895 ft 476 kts 321°
2026-04-28 08:05 28.04341 84.11603 30291 ft 479 kts 321°
2026-04-28 08:05 28.07000 84.09301 30689 ft 481 kts 321°
2026-04-28 08:05 28.09631 84.07020 31069 ft 484 kts 321°
2026-04-28 08:05 28.12309 84.04697 31436 ft 486 kts 321°
2026-04-28 08:06 28.14991 84.02369 31936 ft 484 kts 321°
2026-04-28 08:06 28.17663 84.00048 32507 ft 482 kts 321°
2026-04-28 08:06 28.20319 83.97742 33101 ft 480 kts 321°
2026-04-28 08:06 28.22921 83.95391 33628 ft 477 kts 319°
2026-04-28 08:07 28.25450 83.92966 34103 ft 475 kts 317°
2026-04-28 08:07 28.27950 83.90507 34499 ft 475 kts 317°
2026-04-28 08:07 28.30441 83.88046 34911 ft 475 kts 317°
2026-04-28 08:07 28.32937 83.85589 35269 ft 474 kts 317°
2026-04-28 08:08 28.35440 83.83142 35646 ft 474 kts 317°
2026-04-28 08:08 28.37944 83.80708 35985 ft 473 kts 317°
2026-04-28 08:08 28.40414 83.78316 36287 ft 472 kts 318°
2026-04-28 08:08 28.42914 83.75895 36637 ft 473 kts 318°
2026-04-28 08:09 28.45416 83.73476 36979 ft 472 kts 318°
2026-04-28 08:09 28.47922 83.71052 37332 ft 472 kts 318°
2026-04-28 08:09 28.50423 83.68633 37636 ft 471 kts 318°
2026-04-28 08:09 28.52919 83.66215 38041 ft 470 kts 317°
2026-04-28 08:10 28.55395 83.63811 38509 ft 466 kts 317°
2026-04-28 08:10 28.57857 83.61422 38790 ft 464 kts 317°
2026-04-28 08:10 28.60316 83.59037 38994 ft 464 kts 318°
2026-04-28 08:10 28.62767 83.56660 39209 ft 462 kts 318°
2026-04-28 08:11 28.65212 83.54285 39374 ft 463 kts 317°
2026-04-28 08:11 28.67664 83.51895 39540 ft 463 kts 317°
2026-04-28 08:11 28.70084 83.49536 39729 ft 464 kts 318°
2026-04-28 08:11 28.72539 83.47141 39930 ft 464 kts 317°
2026-04-28 08:12 28.77435 83.42364 40011 ft 463 kts 317°
2026-04-28 08:12 28.82336 83.37582 40019 ft 464 kts 317°
2026-04-28 08:13 28.87237 83.32794 40026 ft 463 kts 317°
2026-04-28 08:13 28.92135 83.27999 40022 ft 463 kts 317°
2026-04-28 08:14 28.97025 83.23204 40016 ft 463 kts 317°
2026-04-28 08:14 29.01883 83.18435 40016 ft 464 kts 317°
2026-04-28 08:15 29.06781 83.13624 40002 ft 464 kts 317°
2026-04-28 08:15 29.11673 83.08808 39999 ft 463 kts 317°
2026-04-28 08:16 29.16561 83.03988 40016 ft 463 kts 317°
2026-04-28 08:16 29.21431 82.99170 39997 ft 463 kts 317°
2026-04-28 08:17 29.26304 82.94354 39995 ft 463 kts 317°
2026-04-28 08:17 29.31189 82.89535 40009 ft 463 kts 317°
2026-04-28 08:18 29.36059 82.84689 40006 ft 463 kts 316°
2026-04-28 08:18 29.40910 82.79883 40027 ft 464 kts 317°
2026-04-28 08:19 29.45792 82.75043 40011 ft 464 kts 317°
2026-04-28 08:19 29.50679 82.70195 39995 ft 464 kts 317°
2026-04-28 08:20 29.55552 82.65344 40010 ft 463 kts 317°
2026-04-28 08:20 29.60434 82.60476 40005 ft 464 kts 317°
2026-04-28 08:21 29.65294 82.55618 40013 ft 462 kts 316°
2026-04-28 08:21 29.70117 82.50797 39999 ft 462 kts 316°
2026-04-28 08:22 29.74989 82.45917 40003 ft 465 kts 316°
2026-04-28 08:22 29.79855 82.41042 40013 ft 462 kts 317°
2026-04-28 08:23 29.84699 82.36180 40015 ft 462 kts 316°
2026-04-28 08:23 29.89550 82.31308 40027 ft 463 kts 316°
2026-04-28 08:24 29.94392 82.26428 40037 ft 462 kts 316°
2026-04-28 08:24 29.99239 82.21553 40030 ft 461 kts 316°
2026-04-28 08:25 30.04079 82.16674 40036 ft 461 kts 316°
2026-04-28 08:26 30.10511 82.10167 40020 ft 461 kts 316°
2026-04-28 08:26 30.15347 82.05264 40047 ft 463 kts 316°
2026-04-28 08:27 30.20147 82.00398 40028 ft 461 kts 316°
2026-04-28 08:27 30.24969 81.95505 40011 ft 460 kts 316°
2026-04-28 08:28 30.29788 81.90606 39999 ft 460 kts 316°
2026-04-28 08:28 30.34606 81.85695 40008 ft 461 kts 316°
2026-04-28 08:29 30.39425 81.80785 39983 ft 462 kts 316°
2026-04-28 08:29 30.44245 81.75869 39984 ft 460 kts 316°
2026-04-28 08:30 30.49035 81.70975 39945 ft 458 kts 316°
2026-04-28 08:30 30.53820 81.66078 39949 ft 458 kts 316°
2026-04-28 08:31 30.58604 81.61178 39913 ft 459 kts 316°
2026-04-28 08:31 30.63398 81.56260 39917 ft 460 kts 316°
2026-04-28 08:32 30.68161 81.51363 39914 ft 460 kts 316°
2026-04-28 08:32 30.72944 81.46439 39897 ft 459 kts 316°
2026-04-28 08:33 30.77717 81.41521 39895 ft 458 kts 316°
2026-04-28 08:33 30.82486 81.36586 39897 ft 458 kts 315°
2026-04-28 08:34 30.87214 81.31597 39889 ft 458 kts 315°
2026-04-28 08:34 30.91930 81.26601 39884 ft 459 kts 315°
2026-04-28 08:35 30.96641 81.21615 39888 ft 460 kts 315°
2026-04-28 08:35 31.01388 81.16594 39886 ft 461 kts 315°
2026-04-28 08:36 31.06141 81.11563 39883 ft 461 kts 315°
2026-04-28 08:36 31.10890 81.06527 39902 ft 461 kts 315°
2026-04-28 08:37 31.15597 81.01530 39888 ft 460 kts 315°
2026-04-28 08:37 31.20332 80.96493 39887 ft 460 kts 315°
2026-04-28 08:38 31.25068 80.91449 39900 ft 460 kts 315°
2026-04-28 08:38 31.29803 80.86402 39880 ft 460 kts 315°
2026-04-28 08:39 31.34532 80.81350 39900 ft 460 kts 315°
2026-04-28 08:39 31.39261 80.76291 39895 ft 461 kts 315°
2026-04-28 08:40 31.43993 80.71222 39899 ft 461 kts 315°
2026-04-28 08:40 31.48719 80.66156 39903 ft 460 kts 315°
2026-04-28 08:41 31.53434 80.61092 39900 ft 460 kts 315°
2026-04-28 08:41 31.58149 80.56015 39905 ft 460 kts 315°
2026-04-28 08:42 31.62836 80.50968 39910 ft 461 kts 315°
2026-04-28 08:42 31.67560 80.45876 39911 ft 461 kts 315°
2026-04-28 08:43 31.72293 80.40765 39916 ft 462 kts 315°
2026-04-28 08:43 31.77010 80.35659 39913 ft 461 kts 315°
2026-04-28 08:44 31.81728 80.30546 39915 ft 461 kts 315°
2026-04-28 08:44 31.86447 80.25427 39914 ft 461 kts 315°
2026-04-28 08:45 31.91157 80.20307 39920 ft 461 kts 315°
2026-04-28 08:45 31.96132 80.15515 39922 ft 465 kts 324°
2026-04-28 08:46 32.02060 80.12403 39910 ft 472 kts 341°
2026-04-28 08:46 32.08543 80.11104 39911 ft 477 kts 348°
2026-04-28 08:47 32.15156 80.10207 39889 ft 478 kts 349°
2026-04-28 08:47 32.21776 80.09348 39889 ft 478 kts 349°
2026-04-28 08:48 32.28383 80.08449 39868 ft 478 kts 349°
2026-04-28 08:48 32.34943 80.07534 39853 ft 477 kts 349°
2026-04-28 08:49 32.41549 80.06604 39847 ft 478 kts 349°
2026-04-28 08:49 32.48164 80.05713 39837 ft 479 kts 352°
2026-04-28 08:50 32.54848 80.05403 39835 ft 481 kts 355°
2026-04-28 08:50 32.61549 80.05290 39831 ft 481 kts 354°
2026-04-28 08:51 32.68247 80.05108 39832 ft 481 kts 354°
2026-04-28 08:51 32.74931 80.04854 39835 ft 480 kts 354°
2026-04-28 08:52 32.81620 80.04580 39839 ft 480 kts 353°
2026-04-28 08:52 32.88310 80.04302 39839 ft 481 kts 354°
2026-04-28 08:53 32.94960 80.04035 39837 ft 482 kts 354°
2026-04-28 08:53 33.01665 80.03768 39822 ft 481 kts 354°
2026-04-28 08:54 33.08381 80.03500 39802 ft 481 kts 354°
2026-04-28 08:54 33.15062 80.03234 39804 ft 479 kts 353°
2026-04-28 08:55 33.21735 80.02964 39783 ft 479 kts 354°
2026-04-28 08:55 33.28366 80.02695 39785 ft 479 kts 354°
2026-04-28 08:56 33.35027 80.02426 39774 ft 478 kts 353°
2026-04-28 08:56 33.41674 80.02155 39772 ft 478 kts 353°
2026-04-28 08:57 33.48327 80.01885 39772 ft 478 kts 353°
2026-04-28 08:57 33.54974 80.01616 39772 ft 478 kts 353°
2026-04-28 08:58 33.61627 80.01345 39795 ft 478 kts 353°
2026-04-28 08:58 33.68226 80.01075 39781 ft 478 kts 353°
2026-04-28 08:59 33.74878 80.00806 39805 ft 478 kts 353°
2026-04-28 08:59 33.81533 80.00538 39857 ft 478 kts 353°
2026-04-28 09:00 33.88148 80.00257 39835 ft 473 kts 353°
2026-04-28 09:00 33.94732 79.99983 39852 ft 473 kts 352°
2026-04-28 09:01 34.01326 79.99720 39849 ft 474 kts 353°
2026-04-28 09:01 34.07893 79.99467 39885 ft 475 kts 353°
2026-04-28 09:02 34.14509 79.99186 39892 ft 475 kts 353°
2026-04-28 09:02 34.21132 79.98902 39889 ft 476 kts 353°
2026-04-28 09:03 34.27755 79.98630 39882 ft 476 kts 353°
2026-04-28 09:03 34.34337 79.98361 39886 ft 476 kts 353°
2026-04-28 09:04 34.40983 79.98091 39883 ft 480 kts 353°
2026-04-28 09:04 34.47658 79.97813 39867 ft 479 kts 353°
2026-04-28 09:05 34.54325 79.97534 39857 ft 478 kts 353°
2026-04-28 09:05 34.60933 79.97258 39862 ft 478 kts 352°
2026-04-28 09:06 34.67583 79.96981 39848 ft 478 kts 352°
2026-04-28 09:06 34.74228 79.96702 39822 ft 478 kts 352°
2026-04-28 09:07 34.80870 79.96424 39827 ft 478 kts 353°
2026-04-28 09:07 34.87532 79.96146 39824 ft 478 kts 352°
2026-04-28 09:08 34.94146 79.95868 39817 ft 479 kts 352°
2026-04-28 09:08 35.00808 79.95588 39817 ft 479 kts 352°
2026-04-28 09:09 35.07477 79.95307 39823 ft 479 kts 352°
2026-04-28 09:09 35.14135 79.95026 39835 ft 478 kts 352°
2026-04-28 09:10 35.20800 79.94745 39832 ft 478 kts 352°
2026-04-28 09:10 35.27452 79.94463 39858 ft 478 kts 352°
2026-04-28 09:11 35.34105 79.94181 39904 ft 478 kts 352°
2026-04-28 09:11 35.40770 79.93897 39891 ft 480 kts 353°
2026-04-28 09:12 35.47407 79.93622 39925 ft 480 kts 352°
2026-04-28 09:12 35.54099 79.93337 39969 ft 481 kts 352°
2026-04-28 09:13 35.60783 79.93039 39971 ft 480 kts 352°
2026-04-28 09:13 35.67451 79.92757 40004 ft 479 kts 352°
2026-04-28 09:14 35.73031 79.92524 39987 ft 479 kts 352°
2026-04-28 09:14 35.79661 79.92239 40010 ft 479 kts 352°
2026-04-28 09:15 35.86323 79.91949 40024 ft 479 kts 352°
2026-04-28 09:15 35.92994 79.91686 40024 ft 478 kts 352°
2026-04-28 09:16 35.99657 79.91399 40014 ft 478 kts 352°
2026-04-28 09:16 36.06315 79.91096 40003 ft 479 kts 352°
2026-04-28 09:17 36.12977 79.90807 39985 ft 479 kts 352°
2026-04-28 09:17 36.19632 79.90508 39966 ft 478 kts 352°
2026-04-28 09:18 36.26244 79.90229 39939 ft 479 kts 352°
2026-04-28 09:18 36.32901 79.89944 39921 ft 479 kts 352°
2026-04-28 09:19 36.39560 79.89649 39912 ft 479 kts 352°
2026-04-28 09:19 36.46218 79.89348 39859 ft 478 kts 352°
2026-04-28 09:20 36.52878 79.89059 39838 ft 477 kts 352°
2026-04-28 09:20 36.59498 79.88791 39844 ft 474 kts 352°
2026-04-28 09:21 36.66050 79.88494 39814 ft 474 kts 352°
2026-04-28 09:21 36.72648 79.88237 39814 ft 475 kts 352°
2026-04-28 09:22 36.79274 79.87946 39810 ft 476 kts 352°
2026-04-28 09:22 36.85890 79.87634 39788 ft 474 kts 352°
2026-04-28 09:23 36.92447 79.87329 39758 ft 474 kts 352°
2026-04-28 09:23 36.98916 79.86353 39767 ft 462 kts 339°
2026-04-28 09:24 37.04739 79.83293 39764 ft 449 kts 322°
2026-04-28 09:24 37.09427 79.78310 39735 ft 439 kts 308°
2026-04-28 09:25 37.13425 79.72523 39738 ft 440 kts 306°
2026-04-28 09:25 37.17328 79.66611 39715 ft 440 kts 306°
2026-04-28 09:26 37.21240 79.60701 39736 ft 440 kts 306°
2026-04-28 09:26 37.25167 79.54809 39745 ft 440 kts 306°
2026-04-28 09:27 37.31044 79.46005 39723 ft 439 kts 306°
2026-04-28 09:27 37.34966 79.40114 39718 ft 440 kts 306°
2026-04-28 09:28 37.38897 79.34196 39717 ft 441 kts 306°
2026-04-28 09:28 37.42831 79.28265 39711 ft 441 kts 306°
2026-04-28 09:29 37.46762 79.22330 39722 ft 441 kts 306°
2026-04-28 09:29 37.50687 79.16392 39712 ft 440 kts 306°
2026-04-28 09:30 37.54605 79.10452 39714 ft 440 kts 306°
2026-04-28 09:30 37.58493 79.04546 39711 ft 440 kts 306°
2026-04-28 09:31 37.62408 78.98588 39715 ft 442 kts 306°
2026-04-28 09:31 37.66336 78.92600 39714 ft 442 kts 306°
2026-04-28 09:32 37.70258 78.86615 39717 ft 441 kts 305°
2026-04-28 09:32 37.74137 78.80680 39713 ft 440 kts 305°
2026-04-28 09:33 37.78033 78.74708 39714 ft 440 kts 305°
2026-04-28 09:33 37.81933 78.68720 39712 ft 441 kts 305°
2026-04-28 09:34 37.85834 78.62719 39716 ft 442 kts 305°
2026-04-28 09:34 37.89750 78.56687 39724 ft 443 kts 305°
2026-04-28 09:35 37.93668 78.50637 39717 ft 444 kts 305°
2026-04-28 09:35 37.97555 78.44624 39714 ft 444 kts 305°
2026-04-28 09:36 38.01470 78.38556 39715 ft 444 kts 304°
2026-04-28 09:36 38.05383 78.32482 39714 ft 444 kts 304°
2026-04-28 09:37 38.09288 78.26409 39723 ft 444 kts 304°
2026-04-28 09:37 38.13190 78.20329 39716 ft 444 kts 304°
2026-04-28 09:38 38.17090 78.14238 39717 ft 444 kts 304°
2026-04-28 09:38 38.20988 78.08141 39717 ft 444 kts 304°
2026-04-28 09:39 38.24856 78.02079 39721 ft 444 kts 304°
2026-04-28 09:39 38.28749 77.95967 39724 ft 444 kts 304°
2026-04-28 09:40 38.32646 77.89835 39734 ft 446 kts 304°
2026-04-28 09:40 38.36549 77.83683 39738 ft 446 kts 304°
2026-04-28 09:41 38.40456 77.77515 39748 ft 446 kts 304°
2026-04-28 09:41 38.44350 77.71355 39750 ft 446 kts 304°
2026-04-28 09:42 38.48218 77.65225 39772 ft 446 kts 304°
2026-04-28 09:42 38.52102 77.59058 39766 ft 445 kts 304°
2026-04-28 09:43 38.55988 77.52875 39778 ft 447 kts 304°
2026-04-28 09:43 38.59904 77.46699 39783 ft 448 kts 305°
2026-04-28 09:44 38.63978 77.40641 39795 ft 449 kts 306°
2026-04-28 09:44 38.68072 77.34612 39807 ft 449 kts 306°
2026-04-28 09:45 38.72143 77.28553 39807 ft 448 kts 306°
2026-04-28 09:45 38.76196 77.22476 39813 ft 448 kts 306°
2026-04-28 09:46 38.80227 77.16410 39827 ft 450 kts 306°
2026-04-28 09:46 38.84296 77.10277 39825 ft 451 kts 306°
2026-04-28 09:47 38.88363 77.04140 39849 ft 450 kts 305°
2026-04-28 09:47 38.92411 76.98019 39848 ft 449 kts 305°
2026-04-28 09:48 38.96455 76.91892 39870 ft 449 kts 305°
2026-04-28 09:48 39.00496 76.85756 39865 ft 450 kts 305°
2026-04-28 09:49 39.04546 76.79594 39876 ft 451 kts 305°
2026-04-28 09:49 39.08592 76.73429 39892 ft 450 kts 305°
2026-04-28 09:50 39.12624 76.67274 39893 ft 449 kts 305°
2026-04-28 09:50 39.16623 76.61156 39912 ft 449 kts 305°
2026-04-28 09:51 39.20644 76.54991 39915 ft 449 kts 305°
2026-04-28 09:51 39.24665 76.48815 39937 ft 449 kts 305°
2026-04-28 09:52 39.28688 76.42622 39928 ft 450 kts 305°
2026-04-28 09:52 39.32705 76.36430 39930 ft 450 kts 305°
2026-04-28 09:53 39.36726 76.30218 39950 ft 450 kts 305°
2026-04-28 09:53 39.40740 76.24004 39975 ft 450 kts 305°
2026-04-28 09:54 39.44750 76.17785 39995 ft 450 kts 305°
2026-04-28 09:54 39.48752 76.11566 39993 ft 450 kts 305°
2026-04-28 09:55 39.53297 76.05968 39992 ft 460 kts 319°
2026-04-28 09:55 39.59068 76.02154 39993 ft 475 kts 336°
2026-04-28 09:56 39.65641 76.00522 39998 ft 484 kts 346°
2026-04-28 09:56 39.72358 75.99509 40005 ft 486 kts 347°
2026-04-28 09:57 39.79091 75.98558 40013 ft 486 kts 347°
2026-04-28 09:57 39.85820 75.97560 40047 ft 486 kts 347°
2026-04-28 09:58 39.92493 75.96536 40063 ft 486 kts 347°
2026-04-28 09:58 39.99217 75.95494 40093 ft 486 kts 347°
2026-04-28 09:59 40.05945 75.94451 40128 ft 486 kts 347°
2026-04-28 09:59 40.12669 75.93410 40114 ft 485 kts 347°
2026-04-28 10:00 40.19339 75.92371 40140 ft 485 kts 347°
2026-04-28 10:00 40.26045 75.91318 40158 ft 485 kts 347°
2026-04-28 10:01 40.32764 75.90267 40165 ft 485 kts 347°
2026-04-28 10:01 40.39471 75.89248 40170 ft 485 kts 347°
2026-04-28 10:02 40.46187 75.88227 40170 ft 485 kts 347°
2026-04-28 10:02 40.51768 75.87374 40171 ft 485 kts 347°
2026-04-28 10:03 40.58470 75.86350 40162 ft 485 kts 347°
2026-04-28 10:03 40.65178 75.85317 40151 ft 485 kts 347°
2026-04-28 10:04 40.71890 75.84279 40147 ft 485 kts 347°
2026-04-28 10:04 40.78609 75.83239 40131 ft 486 kts 347°
2026-04-28 10:05 40.85282 75.82210 40110 ft 486 kts 347°
2026-04-28 10:05 40.91999 75.81161 40093 ft 486 kts 347°
2026-04-28 10:06 40.98708 75.80113 40063 ft 485 kts 347°
2026-04-28 10:06 41.05426 75.79062 40063 ft 485 kts 347°
2026-04-28 10:07 41.12119 75.78009 40056 ft 485 kts 347°
2026-04-28 10:07 41.18779 75.76961 40024 ft 484 kts 347°
2026-04-28 10:08 41.25465 75.75911 39999 ft 484 kts 347°
2026-04-28 10:08 41.32158 75.74861 40006 ft 483 kts 347°
2026-04-28 10:09 41.38841 75.73847 39994 ft 484 kts 349°
2026-04-28 10:09 41.45634 75.74430 39996 ft 497 kts
2026-04-28 10:10 41.52359 75.76766 40013 ft 501 kts 10°
2026-04-28 10:10 41.59057 75.79431 39995 ft 502 kts 11°
2026-04-28 10:11 41.65694 75.82106 40010 ft 501 kts 11°
2026-04-28 10:11 41.72378 75.84753 40007 ft 500 kts 11°
2026-04-28 10:12 41.79062 75.87398 40015 ft 501 kts 10°
2026-04-28 10:12 41.85751 75.90053 40020 ft 501 kts 10°
2026-04-28 10:13 41.92449 75.92708 40019 ft 501 kts 10°
2026-04-28 10:13 41.99148 75.95373 40038 ft 502 kts 11°
2026-04-28 10:14 42.05855 75.98047 40044 ft 502 kts 11°
2026-04-28 10:14 42.12508 76.00718 40046 ft 502 kts 11°
2026-04-28 10:15 42.19204 76.03407 40061 ft 502 kts 11°
2026-04-28 10:15 42.25901 76.06082 40048 ft 501 kts 11°
2026-04-28 10:16 42.32597 76.08768 40050 ft 502 kts 11°
2026-04-28 10:16 42.39289 76.11479 40047 ft 503 kts 12°
2026-04-28 10:17 42.45606 76.15635 40389 ft 514 kts 29°
2026-04-28 10:17 42.48557 76.18364 40728 ft 512 kts 31°
2026-04-28 10:17 42.51455 76.21182 40976 ft 512 kts 32°
2026-04-28 10:18 42.57185 76.26938 41069 ft 513 kts 32°
2026-04-28 10:18 42.62909 76.32726 41095 ft 513 kts 32°
2026-04-28 10:19 42.68634 76.38500 41108 ft 512 kts 32°
2026-04-28 10:19 42.74358 76.44271 41116 ft 512 kts 32°
2026-04-28 10:20 42.80049 76.50007 41115 ft 511 kts 32°
2026-04-28 10:20 42.85767 76.55785 41108 ft 511 kts 32°
2026-04-28 10:21 42.91477 76.61572 41078 ft 511 kts 32°
2026-04-28 10:21 42.97179 76.67352 41082 ft 510 kts 32°
2026-04-28 10:22 43.02888 76.73164 41078 ft 511 kts 32°
2026-04-28 10:22 43.08571 76.78922 41076 ft 511 kts 32°
2026-04-28 10:23 43.14271 76.84735 41079 ft 510 kts 32°
2026-04-28 10:23 43.19955 76.90559 41052 ft 510 kts 32°
2026-04-28 10:24 43.25658 76.96352 41047 ft 510 kts 32°
2026-04-28 10:24 43.31384 77.02087 41051 ft 509 kts 32°
2026-04-28 10:25 43.37285 77.07390 41049 ft 502 kts 21°
2026-04-28 10:25 43.43752 77.10505 41047 ft 494 kts 10°
2026-04-28 10:26 43.50403 77.12863 41045 ft 493 kts
2026-04-28 10:26 43.57073 77.15093 41029 ft 493 kts
2026-04-28 10:27 43.63737 77.17326 41002 ft 493 kts
2026-04-28 10:27 43.70404 77.19533 41016 ft 493 kts
2026-04-28 10:28 43.77070 77.21748 41005 ft 493 kts
2026-04-28 10:29 43.87068 77.25094 40997 ft 492 kts
2026-04-28 10:29 43.93727 77.27333 41001 ft 492 kts
2026-04-28 10:30 44.00382 77.29575 41001 ft 492 kts
2026-04-28 10:30 44.06992 77.31808 41003 ft 492 kts
2026-04-28 10:31 44.13644 77.34060 41012 ft 491 kts
2026-04-28 10:31 44.20296 77.36315 41007 ft 491 kts
2026-04-28 10:32 44.26939 77.38571 41017 ft 491 kts
2026-04-28 10:32 44.33576 77.40831 41032 ft 491 kts
2026-04-28 10:33 44.40216 77.43099 41029 ft 491 kts
2026-04-28 10:33 44.46859 77.45378 41033 ft 491 kts
2026-04-28 10:34 44.53461 77.47636 41034 ft 491 kts
2026-04-28 10:34 44.60109 77.49915 41040 ft 491 kts
2026-04-28 10:35 44.66742 77.52196 41044 ft 491 kts
2026-04-28 10:35 44.73384 77.54486 41044 ft 491 kts
2026-04-28 10:36 44.80013 77.56778 41044 ft 490 kts
2026-04-28 10:36 44.86604 77.59062 41045 ft 490 kts
2026-04-28 10:37 44.93233 77.61364 41055 ft 490 kts 10°
2026-04-28 10:37 44.99861 77.63672 41044 ft 490 kts 10°
2026-04-28 10:38 45.06485 77.65990 41053 ft 490 kts 10°
2026-04-28 10:38 45.13102 77.68316 41048 ft 490 kts 10°
2026-04-28 10:39 45.19726 77.70645 41050 ft 490 kts 10°
2026-04-28 10:39 45.26347 77.72981 41057 ft 490 kts 10°
2026-04-28 10:40 45.32964 77.75322 41066 ft 490 kts 10°
2026-04-28 10:40 45.39577 77.77667 41059 ft 490 kts 10°
2026-04-28 10:41 45.46098 77.80586 41063 ft 495 kts 21°
2026-04-28 10:41 45.52037 77.85677 41062 ft 500 kts 31°
2026-04-28 10:42 45.57735 77.91413 41066 ft 501 kts 32°
2026-04-28 10:42 45.63383 77.97256 41068 ft 501 kts 32°
2026-04-28 10:43 45.69002 78.03055 41068 ft 501 kts 32°
2026-04-28 10:43 45.74669 78.08880 41084 ft 501 kts 32°
2026-04-28 10:44 45.80335 78.14706 41073 ft 501 kts 32°
2026-04-28 10:44 45.86000 78.20544 41074 ft 501 kts 32°
2026-04-28 10:45 45.91665 78.26401 41076 ft 501 kts 32°
2026-04-28 10:45 45.97325 78.32268 41092 ft 501 kts 32°
2026-04-28 10:46 46.02985 78.38150 41076 ft 501 kts 32°
2026-04-28 10:46 46.08631 78.44034 41083 ft 501 kts 32°
2026-04-28 10:47 46.14243 78.49895 41078 ft 501 kts 33°
2026-04-28 10:47 46.19896 78.55817 41090 ft 501 kts 33°
2026-04-28 10:48 46.25542 78.61745 41080 ft 501 kts 33°
2026-04-28 10:48 46.31184 78.67685 41081 ft 501 kts 33°
2026-04-28 10:49 46.36825 78.73636 41081 ft 501 kts 33°
2026-04-28 10:49 46.42461 78.79593 41080 ft 502 kts 33°
2026-04-28 10:50 46.48097 78.85566 41075 ft 502 kts 33°
2026-04-28 10:50 46.53729 78.91553 41075 ft 501 kts 33°
2026-04-28 10:51 46.58407 78.96538 41066 ft 501 kts 33°
2026-04-28 10:51 46.64947 79.03524 41072 ft 502 kts 33°
2026-04-28 10:52 46.69661 79.08572 41062 ft 502 kts 33°
2026-04-28 10:52 46.76197 79.15592 41070 ft 502 kts 33°
2026-04-28 10:53 46.80873 79.20627 41066 ft 502 kts 33°
2026-04-28 10:53 46.86493 79.26693 41067 ft 502 kts 33°
2026-04-28 10:54 46.92105 79.32768 41076 ft 502 kts 33°
2026-04-28 10:54 46.97727 79.38868 41069 ft 502 kts 33°
2026-04-28 10:55 47.03342 79.44978 41059 ft 502 kts 33°
2026-04-28 10:55 47.08915 79.51057 41066 ft 502 kts 33°
2026-04-28 10:56 47.14524 79.57194 41063 ft 502 kts 34°
2026-04-28 10:56 47.20124 79.63337 41080 ft 502 kts 33°
2026-04-28 10:57 47.25728 79.69500 41081 ft 502 kts 34°
2026-04-28 10:57 47.31329 79.75677 41070 ft 503 kts 34°
2026-04-28 10:58 47.36927 79.81867 41082 ft 502 kts 34°
2026-04-28 10:58 47.42516 79.88064 41076 ft 503 kts 34°
2026-04-28 10:59 47.48072 79.94239 41082 ft 502 kts 33°
2026-04-28 10:59 47.53660 80.00464 41086 ft 503 kts 34°
2026-04-28 11:00 47.59243 80.06708 41096 ft 503 kts 34°
2026-04-28 11:00 47.64818 80.12963 41096 ft 502 kts 33°
2026-04-28 11:01 47.70392 80.19228 41098 ft 502 kts 34°
2026-04-28 11:01 47.75956 80.25501 41102 ft 502 kts 34°
2026-04-28 11:02 47.81516 80.31785 41103 ft 502 kts 34°
2026-04-28 11:02 47.87047 80.38016 41109 ft 500 kts 32°
2026-04-28 11:03 47.93167 80.42718 41122 ft 491 kts 15°
2026-04-28 11:03 47.99823 80.44309 41133 ft 482 kts 356°
2026-04-28 11:04 48.06527 80.43975 41134 ft 481 kts 354°
2026-04-28 11:04 48.13223 80.43341 41135 ft 481 kts 353°
2026-04-28 11:05 48.19901 80.42702 41141 ft 481 kts 353°
2026-04-28 11:05 48.26546 80.42110 41156 ft 481 kts 353°
2026-04-28 11:06 48.33224 80.41536 41151 ft 480 kts 354°
2026-04-28 11:06 48.39906 80.40962 41157 ft 480 kts 354°
2026-04-28 11:07 48.46581 80.40387 41162 ft 480 kts 354°
2026-04-28 11:07 48.53252 80.39807 41167 ft 480 kts 354°
2026-04-28 11:08 48.59885 80.39229 41179 ft 480 kts 354°
2026-04-28 11:08 48.66555 80.38648 41178 ft 480 kts 354°
2026-04-28 11:09 48.73216 80.38064 41190 ft 479 kts 354°
2026-04-28 11:09 48.79873 80.37481 41182 ft 479 kts 353°
2026-04-28 11:10 48.86522 80.36895 41189 ft 478 kts 354°
2026-04-28 11:10 48.93170 80.36309 41191 ft 478 kts 354°
2026-04-28 11:11 48.99762 80.35726 41192 ft 478 kts 354°
2026-04-28 11:11 49.06407 80.35137 41197 ft 478 kts 354°
2026-04-28 11:12 49.13056 80.34551 41208 ft 479 kts 354°
2026-04-28 11:12 49.19716 80.33954 41201 ft 478 kts 354°
2026-04-28 11:13 49.26363 80.33361 41211 ft 478 kts 354°
2026-04-28 11:13 49.33012 80.32765 41213 ft 478 kts 354°
2026-04-28 11:14 49.39611 80.32170 41219 ft 478 kts 354°
2026-04-28 11:14 49.46261 80.31572 41218 ft 478 kts 354°
2026-04-28 11:15 49.52901 80.30973 41226 ft 478 kts 354°
2026-04-28 11:15 49.59539 80.30373 41228 ft 478 kts 354°
2026-04-28 11:16 49.66175 80.29757 41233 ft 477 kts 353°
2026-04-28 11:16 49.72798 80.29002 41233 ft 477 kts 353°
2026-04-28 11:17 49.79383 80.28290 41246 ft 477 kts 354°
2026-04-28 11:17 49.86012 80.27721 41244 ft 477 kts 354°
2026-04-28 11:18 49.92646 80.27166 41258 ft 477 kts 354°
2026-04-28 11:18 49.99282 80.26592 41248 ft 476 kts 354°
2026-04-28 11:19 50.05903 80.26006 41260 ft 476 kts 354°
2026-04-28 11:19 50.12483 80.25419 41263 ft 476 kts 354°
2026-04-28 11:20 50.19099 80.24828 41263 ft 476 kts 354°
2026-04-28 11:20 50.25712 80.24236 41271 ft 476 kts 354°
2026-04-28 11:21 50.32338 80.24014 41265 ft 479 kts
2026-04-28 11:21 50.38845 80.26383 41266 ft 486 kts 20°
2026-04-28 11:22 50.45021 80.30769 41266 ft 488 kts 22°
2026-04-28 11:22 50.51117 80.35507 41268 ft 489 kts 23°
2026-04-28 11:23 50.57208 80.40283 41273 ft 489 kts 23°
2026-04-28 11:23 50.63310 80.45034 41279 ft 489 kts 23°
2026-04-28 11:24 50.69376 80.49743 41288 ft 489 kts 23°
2026-04-28 11:24 50.75477 80.54487 41287 ft 489 kts 23°
2026-04-28 11:25 50.81591 80.59257 41298 ft 489 kts 22°
2026-04-28 11:25 50.87694 80.64034 41294 ft 489 kts 22°
2026-04-28 11:26 50.93802 80.68829 41298 ft 489 kts 22°
2026-04-28 11:26 50.99906 80.73635 41303 ft 489 kts 22°
2026-04-28 11:27 51.05976 80.78428 41301 ft 490 kts 22°
2026-04-28 11:27 51.12072 80.83256 41300 ft 490 kts 22°
2026-04-28 11:28 51.18176 80.88105 41303 ft 490 kts 23°
2026-04-28 11:28 51.24276 80.92966 41318 ft 490 kts 22°
2026-04-28 11:29 51.30394 80.97788 41309 ft 490 kts 22°
2026-04-28 11:29 51.36483 81.02561 41309 ft 490 kts 22°
2026-04-28 11:30 51.42597 81.07377 41313 ft 490 kts 22°
2026-04-28 11:30 51.51765 81.14644 41315 ft 489 kts 22°
2026-04-28 11:31 51.57933 81.19216 41320 ft 484 kts 13°
2026-04-28 11:31 51.64472 81.21304 41318 ft 479 kts
2026-04-28 11:32 51.71021 81.22895 41320 ft 479 kts
2026-04-28 11:32 51.77617 81.24472 41331 ft 478 kts
2026-04-28 11:33 51.84203 81.26045 41325 ft 478 kts
2026-04-28 11:33 51.90777 81.27617 41327 ft 478 kts
2026-04-28 11:34 51.97358 81.29196 41344 ft 478 kts
2026-04-28 11:34 52.03925 81.30776 41333 ft 477 kts
2026-04-28 11:35 52.10492 81.32360 41339 ft 477 kts